Volver al catálogo

ICEYE-X74

ActivoCienciaSSO
NORAD 68500·PAYLOAD·🇺🇸 United States

Lanzado Mar 30, 2026 desde Vandenberg Space Force Base

Loading…

Próximos Pases (próximas 24 horas)

TLE

ActualizadoSource: Space-Track

Época: Sep 14, 2026, 07:58 UTC

1 68500U 26067CN  26257.33242164  .00001483  00000-0  15126-3 0  9991
2 68500  97.7712 214.2727 0003901  83.8362 276.3301 14.92157458 25018

Sigue ICEYE-X74 en tiempo real con AllMySat

Download on the App Store